Tracking 18840 objects as of 19-November-2017
HD Live streaming from Space Station
objects crossing your sky now

SL-8 R/B

Track SL-8 R/B now!
10-day predictions


NORAD ID: 25592
Int'l Code: 1998-076B
Perigee: 972.2 km
Apogee: 1,011.8 km
Inclination: 82.9 °
Period: 104.8 minutes
Semi major axis: 7363 km
RCS: 5.138 m2 (large)
Launch date: December 24, 1998
Source: Commonwealth of Independent States (former USSR) (CIS)
Launch site: PLESETSK MISSILE AND SPACE COMPLEX (PKMTR)

Note: This is a ROCKET BODY
aabbcc
Your satellite tracking list
Your tracking list is empty




NASA's NSSDC Master Catalog

Two Line Element Set (TLE):
1 25592U 98076B   17322.57433057 +.00000106 +00000-0 +95765-4 0  9995
2 25592 082.9339 352.5548 0026870 130.1152 339.1379 13.74103254947619
Source of the keplerian elements: AFSPC